QPF
0.00 0.00 0.00 0.00 0.00 0.00 0.00 0.00 0.00 0.00 0.00 0.00 0.00 0.00 0.00 0.00 0.01 0.01 0.02 0.02 0.05 0.06 0.08 0.12 0.14 0.16 0.20 0.30 0.46 0.57 0.56 0.65 0.73 0.70 0.67 0.59 0.48 0.40 0.36 0.35 0.26 0.19 0.16 0.14
0.00 0.00 0.00 0.00 0.00 0.00 0.00 0.00 0.00 0.00 0.00 0.00 0.00 0.00 0.00 0.01 0.01 0.01 0.02 0.04 0.06 0.08 0.09 0.11 0.12 0.13 0.17 0.27 0.40 0.48 0.50 0.56 0.64 0.65 0.62 0.53 0.42 0.33 0.27 0.26 0.24 0.21 0.17 0.14
0.00 0.00 0.00 0.00 0.00 0.00 0.00 0.00 0.00 0.00 0.00 0.00 0.00 0.00 0.00 0.01 0.01 0.02 0.03 0.05 0.07 0.08 0.09 0.10 0.09 0.10 0.13 0.15 0.18 0.22 0.26 0.33 0.37 0.43 0.40 0.35 0.32 0.28 0.25 0.23 0.19 0.16 0.15 0.14
0.00 0.00 0.00 0.00 0.00 0.00 0.00 0.00 0.00 0.00 0.00 0.00 0.00 0.00 0.01 0.01 0.02 0.03 0.04 0.07 0.08 0.08 0.08 0.09 0.09 0.08 0.09 0.10 0.11 0.12 0.13 0.17 0.18 0.22 0.27 0.30 0.28 0.25 0.23 0.20 0.17 0.16 0.16 0.15
0.00 0.00 0.00 0.00 0.00 0.00 0.00 0.00 0.00 0.00 0.00 0.00 0.00 0.00 0.01 0.02 0.03 0.03 0.04 0.05 0.07 0.08 0.08 0.08 0.08 0.07 0.08 0.09 0.10 0.11 0.12 0.12 0.14 0.16 0.18 0.21 0.23 0.21 0.19 0.18 0.16 0.16 0.16 0.16
0.00 0.00 0.00 0.00 0.00 0.00 0.00 0.00 0.00 0.00 0.00 0.00 0.01 0.00 0.01 0.02 0.03 0.03 0.04 0.04 0.05 0.06 0.07 0.06 0.06 0.06 0.06 0.06 0.07 0.09 0.13 0.15 0.16 0.15 0.15 0.14 0.14 0.16 0.19 0.19 0.17 0.14 0.14 0.14
0.01 0.01 0.01 0.01 0.00 0.00 0.00 0.00 0.00 0.00 0.00 0.00 0.01 0.01 0.01 0.01 0.02 0.02 0.03 0.03 0.03 0.03 0.05 0.05 0.05 0.04 0.04 0.04 0.04 0.03 0.05 0.08 0.08 0.09 0.07 0.06 0.07 0.09 0.09 0.10 0.10 0.11 0.11 0.11
0.01 0.01 0.01 0.01 0.01 0.01 0.01 0.02 0.01 0.01 0.00 0.01 0.01 0.01 0.01 0.02 0.02 0.02 0.02 0.03 0.03 0.04 0.04 0.02 0.02 0.02 0.01 0.01 0.01 0.01 0.01 0.02 0.02 0.02 0.02 0.02 0.03 0.03 0.03 0.04 0.05 0.07 0.08 0.08
0.01 0.01 0.00 0.00 0.01 0.01 0.01 0.02 0.02 0.02 0.01 0.01 0.01 0.02 0.02 0.01 0.02 0.02 0.02 0.02 0.03 0.03 0.02 0.01 0.01 0.00 0.00 0.00 0.00 0.00 0.00 0.00 0.00 0.01 0.01 0.01 0.01 0.01 0.01 0.01 0.01 0.02 0.02 0.03
0.01 0.00 0.00 0.00 0.00 0.01 0.01 0.02 0.02 0.02 0.02 0.01 0.01 0.04 0.05 0.04 0.04 0.02 0.02 0.01 0.01 0.01 0.01 0.01 0.00 0.00 0.00 0.00 0.00 0.00 0.00 0.00 0.00 0.00 0.00 0.00 0.00 0.00 0.00 0.00 0.00 0.00 0.00 0.01
0.00 0.00 0.00 0.00 0.00 0.01 0.01 0.01 0.02 0.02 0.02 0.02 0.02 0.03 0.05 0.04 0.03 0.02 0.01 0.01 0.00 0.00 0.00 0.00 0.00 0.00 0.00 0.00 0.00 0.00 0.00 0.00 0.00 0.00 0.00 0.00 0.00 0.00 0.00 0.00 0.00 0.00 0.00 0.00
0.00 0.00 0.00 0.01 0.01 0.01 0.01 0.02 0.02 0.02 0.02 0.03 0.02 0.03 0.03 0.02 0.01 0.01 0.00 0.00 0.00 0.00 0.00 0.00 0.00 0.00 0.00 0.00 0.00 0.00 0.00 0.00 0.00 0.00 0.00 0.00 0.00 0.00 0.00 0.00 0.00 0.00 0.00 0.00
0.00 0.00 0.00 0.01 0.00 0.01 0.01 0.01 0.02 0.02 0.02 0.02 0.02 0.02 0.02 0.01 0.00 0.00 0.00 0.00 0.00 0.00 0.00 0.00 0.00 0.00 0.00 0.00 0.00 0.00 0.00 0.00 0.00 0.00 0.00 0.00 0.00 0.00 0.00 0.00 0.00 0.00 0.00 0.00
0.00 0.00 0.00 0.00 0.00 0.01 0.02 0.02 0.02 0.01 0.01 0.01 0.01 0.01 0.01 0.01 0.00 0.00 0.00 0.00 0.00 0.00 0.00 0.00 0.00 0.00 0.00 0.00 0.00 0.00 0.00 0.00 0.00 0.00 0.00 0.00 0.00 0.00 0.00 0.00 0.00 0.00 0.00 0.00
0.00 0.00 0.00 0.00 0.00 0.01 0.01 0.01 0.01 0.00 0.01 0.01 0.01 0.01 0.00 0.00 0.00 0.00 0.00 0.00 0.00 0.00 0.00 0.00 0.00 0.00 0.00 0.00 0.00 0.00 0.00 0.00 0.00 0.00 0.00 0.00 0.00 0.00 0.00 0.00 0.00 0.00 0.00 0.00
0.00 0.00 0.00 0.00 0.01 0.01 0.01 0.00 0.00 0.00 0.00 0.00 0.00 0.00 0.00 0.00 0.00 0.00 0.00 0.00 0.00 0.00 0.00 0.00 0.00 0.00 0.00 0.00 0.00 0.00 0.00 0.00 0.00 0.00 0.00 0.00 0.00 0.00 0.00 0.00 0.00 0.00 0.00 0.00
0.01 0.00 0.00 0.00 0.00 0.01 0.00 0.00 0.00 0.00 0.00 0.00 0.00 0.00 0.00 0.00 0.00 0.00 0.00 0.00 0.00 0.00 0.00 0.00 0.00 0.00 0.00 0.00 0.00 0.00 0.00 0.00 0.00 0.00 0.00 0.00 0.00 0.00 0.00 0.00 0.00 0.00 0.00 0.00
0.01 0.00 0.00 0.00 0.00 0.00 0.00 0.00 0.00 0.00 0.00 0.00 0.00 0.00 0.00 0.00 0.00 0.00 0.00 0.00 0.00 0.00 0.00 0.00 0.00 0.00 0.00 0.00 0.00 0.00 0.00 0.00 0.00 0.00 0.01 0.01 0.01 0.01 0.01 0.01 0.01 0.01 0.01 0.01
0.00 0.00 0.00 0.00 0.00 0.00 0.00 0.00 0.00 0.00 0.00 0.00 0.00 0.00 0.00 0.00 0.00 0.00 0.00 0.00 0.00 0.00 0.00 0.00 0.00 0.00 0.00 0.00 0.00 0.00 0.00 0.00 0.01 0.01 0.01 0.01 0.01 0.02 0.02 0.02 0.01 0.01 0.01 0.01
0.00 0.00 0.00 0.00 0.00 0.00 0.00 0.00 0.00 0.00 0.00 0.00 0.00 0.00 0.00 0.00 0.00 0.00 0.00 0.00 0.00 0.00 0.00 0.00 0.00 0.00 0.00 0.00 0.00 0.00 0.00 0.01 0.01 0.01 0.02 0.02 0.02 0.03 0.02 0.02 0.02 0.02 0.02 0.02
0.00 0.00 0.00 0.00 0.00 0.00 0.00 0.00 0.00 0.00 0.00 0.00 0.00 0.00 0.00 0.00 0.00 0.00 0.00 0.00 0.00 0.00 0.00 0.00 0.00 0.00 0.00 0.00 0.00 0.01 0.01 0.01 0.01 0.02 0.03 0.02 0.02 0.03 0.03 0.03 0.02 0.03 0.03 0.03
0.00 0.00 0.00 0.00 0.00 0.00 0.00 0.00 0.00 0.00 0.00 0.00 0.00 0.00 0.00 0.00 0.00 0.00 0.00 0.00 0.00 0.00 0.00 0.00 0.00 0.00 0.00 0.00 0.01 0.01 0.02 0.02 0.02 0.03 0.03 0.02 0.02 0.02 0.03 0.03 0.03 0.03 0.03 0.03
0.00 0.00 0.00 0.00 0.00 0.00 0.00 0.00 0.00 0.00 0.00 0.00 0.00 0.00 0.00 0.00 0.00 0.00 0.00 0.00 0.00 0.00 0.00 0.00 0.00 0.00 0.00 0.00 0.01 0.02 0.03 0.03 0.03 0.03 0.03 0.02 0.02 0.02 0.03 0.03 0.04 0.04 0.03 0.03
0.00 0.00 0.00 0.00 0.00 0.00 0.00 0.00 0.00 0.00 0.00 0.00 0.00 0.00 0.00 0.00 0.00 0.00 0.00 0.00 0.00 0.00 0.00 0.00 0.00 0.00 0.01 0.01 0.01 0.02 0.04 0.04 0.04 0.04 0.03 0.03 0.02 0.02 0.03 0.03 0.04 0.04 0.04 0.04
0.00 0.00 0.00 0.00 0.00 0.00 0.00 0.00 0.00 0.00 0.00 0.00 0.00 0.00 0.00 0.00 0.00 0.00 0.00 0.00 0.00 0.00 0.00 0.00 0.00 0.01 0.01 0.01 0.01 0.03 0.04 0.04 0.05 0.05 0.04 0.03 0.03 0.03 0.03 0.03 0.03 0.04 0.03 0.03
0.00 0.00 0.00 0.00 0.00 0.00 0.00 0.00 0.00 0.00 0.00 0.00 0.00 0.00 0.00 0.00 0.00 0.00 0.00 0.00 0.00 0.00 0.00 0.00 0.00 0.01 0.01 0.01 0.02 0.03 0.03 0.04 0.06 0.06 0.05 0.04 0.03 0.03 0.03 0.03 0.03 0.03 0.03 0.02
MSLP
1010.26 1011.00 1011.50 1011.77 1011.84 1011.81 1011.77 1011.79 1011.92 1012.17 1012.49 1012.83 1013.11 1013.27 1013.29 1013.14 1012.87 1012.53 1012.16 1011.82 1011.53 1011.29 1011.10 1010.92 1010.73 1010.51 1010.27 1010.02 1009.79 1009.62 1009.53 1009.53 1009.60 1009.71 1009.82 1009.88 1009.88 1009.78 1009.62 1009.44 1009.28 1009.20 1009.24 1009.42
1010.50 1011.10 1011.46 1011.60 1011.61 1011.56 1011.57 1011.70 1011.98 1012.39 1012.88 1013.37 1013.76 1014.00 1014.04 1013.90 1013.61 1013.23 1012.83 1012.46 1012.15 1011.91 1011.71 1011.53 1011.33 1011.09 1010.82 1010.53 1010.25 1010.03 1009.89 1009.84 1009.86 1009.92 1009.97 1009.98 1009.90 1009.74 1009.52 1009.28 1009.08 1008.99 1009.04 1009.25
1010.53 1010.95 1011.16 1011.19 1011.15 1011.12 1011.21 1011.46 1011.91 1012.48 1013.12 1013.73 1014.19 1014.47 1014.51 1014.34 1014.01 1013.59 1013.17 1012.80 1012.52 1012.31 1012.16 1012.02 1011.86 1011.64 1011.37 1011.07 1010.77 1010.51 1010.32 1010.22 1010.18 1010.18 1010.18 1010.13 1010.00 1009.79 1009.52 1009.25 1009.03 1008.93 1008.97 1009.18
1010.43 1010.66 1010.72 1010.67 1010.60 1010.63 1010.83 1011.24 1011.84 1012.58 1013.34 1014.02 1014.53 1014.80 1014.80 1014.57 1014.19 1013.74 1013.30 1012.94 1012.70 1012.55 1012.48 1012.41 1012.32 1012.15 1011.91 1011.62 1011.30 1011.00 1010.76 1010.60 1010.51 1010.45 1010.40 1010.30 1010.14 1009.91 1009.63 1009.35 1009.12 1009.01 1009.04 1009.23
1010.32 1010.37 1010.29 1010.18 1010.14 1010.25 1010.58 1011.15 1011.92 1012.79 1013.66 1014.39 1014.90 1015.12 1015.06 1014.76 1014.31 1013.80 1013.35 1013.00 1012.80 1012.72 1012.72 1012.74 1012.71 1012.61 1012.40 1012.11 1011.78 1011.44 1011.15 1010.93 1010.78 1010.68 1010.59 1010.47 1010.31 1010.08 1009.82 1009.55 1009.33 1009.21 1009.21 1009.36
1010.33 1010.21 1010.04 1009.90 1009.91 1010.13 1010.60 1011.33 1012.24 1013.23 1014.16 1014.91 1015.39 1015.55 1015.40 1015.00 1014.47 1013.91 1013.42 1013.08 1012.90 1012.86 1012.93 1013.01 1013.04 1012.97 1012.79 1012.50 1012.14 1011.76 1011.42 1011.15 1010.95 1010.81 1010.70 1010.59 1010.45 1010.26 1010.04 1009.81 1009.61 1009.49 1009.47 1009.56
1010.53 1010.28 1010.06 1009.94 1010.01 1010.34 1010.96 1011.82 1012.85 1013.91 1014.87 1015.60 1016.03 1016.10 1015.86 1015.36 1014.74 1014.12 1013.59 1013.22 1013.05 1013.03 1013.12 1013.23 1013.28 1013.22 1013.03 1012.73 1012.34 1011.92 1011.53 1011.21 1010.98 1010.82 1010.71 1010.62 1010.53 1010.40 1010.24 1010.06 1009.91 1009.80 1009.76 1009.80
1010.92 1010.62 1010.39 1010.31 1010.47 1010.91 1011.64 1012.60 1013.69 1014.78 1015.72 1016.41 1016.76 1016.74 1016.41 1015.82 1015.13 1014.44 1013.86 1013.46 1013.26 1013.22 1013.29 1013.38 1013.41 1013.33 1013.12 1012.78 1012.35 1011.89 1011.46 1011.11 1010.85 1010.68 1010.59 1010.54 1010.50 1010.44 1010.36 1010.25 1010.15 1010.06 1010.02 1010.01
1011.48 1011.19 1011.00 1011.00 1011.24 1011.77 1012.56 1013.57 1014.66 1015.72 1016.61 1017.22 1017.48 1017.38 1016.96 1016.31 1015.56 1014.82 1014.20 1013.76 1013.50 1013.41 1013.42 1013.46 1013.43 1013.30 1013.03 1012.65 1012.18 1011.69 1011.23 1010.86 1010.58 1010.42 1010.34 1010.33 1010.34 1010.35 1010.34 1010.30 1010.25 1010.20 1010.15 1010.12
1012.11 1011.90 1011.81 1011.89 1012.22 1012.80 1013.61 1014.59 1015.64 1016.61 1017.40 1017.91 1018.07 1017.90 1017.42 1016.74 1015.96 1015.20 1014.54 1014.06 1013.74 1013.58 1013.51 1013.45 1013.35 1013.14 1012.81 1012.38 1011.88 1011.37 1010.89 1010.49 1010.21 1010.05 1009.99 1009.99 1010.04 1010.09 1010.13 1010.15 1010.14 1010.12 1010.09 1010.06
1012.73 1012.66 1012.69 1012.87 1013.26 1013.86 1014.65 1015.55 1016.48 1017.32 1017.97 1018.36 1018.43 1018.20 1017.70 1017.01 1016.24 1015.49 1014.83 1014.31 1013.95 1013.71 1013.54 1013.38 1013.18 1012.90 1012.51 1012.04 1011.51 1010.98 1010.49 1010.08 1009.79 1009.61 1009.53 1009.53 1009.58 1009.64 1009.70 1009.75 1009.77 1009.77 1009.76 1009.75
1013.27 1013.37 1013.55 1013.84 1014.27 1014.86 1015.57 1016.35 1017.11 1017.78 1018.28 1018.54 1018.52 1018.25 1017.75 1017.10 1016.38 1015.67 1015.03 1014.51 1014.10 1013.79 1013.53 1013.28 1012.99 1012.63 1012.19 1011.68 1011.13 1010.59 1010.09 1009.68 1009.36 1009.14 1009.02 1008.98 1008.98 1009.01 1009.05 1009.09 1009.12 1009.14 1009.15 1009.16
1013.72 1014.00 1014.33 1014.71 1015.18 1015.72 1016.32 1016.94 1017.52 1018.00 1018.33 1018.46 1018.37 1018.08 1017.62 1017.03 1016.38 1015.74 1015.15 1014.64 1014.20 1013.83 1013.50 1013.16 1012.80 1012.37 1011.89 1011.36 1010.80 1010.25 1009.74 1009.30 1008.94 1008.66 1008.47 1008.35 1008.27 1008.23 1008.22 1008.22 1008.23 1008.26 1008.29 1008.33
1014.11 1014.57 1015.02 1015.49 1015.96 1016.43 1016.91 1017.35 1017.74 1018.03 1018.19 1018.20 1018.05 1017.76 1017.34 1016.83 1016.28 1015.73 1015.20 1014.72 1014.27 1013.87 1013.47 1013.07 1012.63 1012.16 1011.64 1011.09 1010.53 1009.97 1009.44 1008.96 1008.55 1008.19 1007.90 1007.67 1007.49 1007.35 1007.26 1007.20 1007.19 1007.21 1007.26 1007.34
1014.51 1015.10 1015.66 1016.16 1016.61 1017.01 1017.35 1017.62 1017.82 1017.93 1017.94 1017.85 1017.66 1017.37 1017.01 1016.59 1016.14 1015.68 1015.22 1014.77 1014.33 1013.89 1013.45 1012.99 1012.50 1011.98 1011.43 1010.87 1010.30 1009.73 1009.18 1008.65 1008.17 1007.72 1007.32 1006.98 1006.68 1006.44 1006.26 1006.14 1006.10 1006.11 1006.17 1006.29
1014.98 1015.65 1016.25 1016.76 1017.17 1017.47 1017.68 1017.79 1017.82 1017.78 1017.66 1017.49 1017.27 1017.00 1016.70 1016.36 1016.00 1015.62 1015.22 1014.80 1014.36 1013.91 1013.42 1012.91 1012.37 1011.82 1011.24 1010.66 1010.08 1009.49 1008.91 1008.34 1007.79 1007.26 1006.76 1006.30 1005.90 1005.56 1005.31 1005.15 1005.07 1005.08 1005.16 1005.30
1015.55 1016.24 1016.83 1017.30 1017.63 1017.83 1017.92 1017.89 1017.79 1017.62 1017.42 1017.19 1016.95 1016.70 1016.45 1016.18 1015.89 1015.57 1015.22 1014.82 1014.37 1013.89 1013.36 1012.81 1012.23 1011.63 1011.03 1010.43 1009.82 1009.22 1008.61 1008.00 1007.39 1006.79 1006.21 1005.67 1005.19 1004.80 1004.49 1004.30 1004.21 1004.22 1004.32 1004.48
1016.21 1016.84 1017.36 1017.75 1017.99 1018.09 1018.06 1017.93 1017.73 1017.48 1017.21 1016.96 1016.71 1016.49 1016.27 1016.05 1015.81 1015.53 1015.19 1014.80 1014.34 1013.82 1013.25 1012.65 1012.03 1011.40 1010.77 1010.14 1009.51 1008.88 1008.25 1007.61 1006.96 1006.32 1005.70 1005.12 1004.60 1004.17 1003.85 1003.65 1003.56 1003.58 1003.70 1003.88
1016.87 1017.39 1017.80 1018.07 1018.20 1018.21 1018.09 1017.88 1017.62 1017.33 1017.04 1016.78 1016.54 1016.33 1016.15 1015.96 1015.74 1015.47 1015.14 1014.73 1014.24 1013.69 1013.08 1012.43 1011.77 1011.10 1010.43 1009.78 1009.13 1008.49 1007.84 1007.19 1006.53 1005.87 1005.24 1004.65 1004.14 1003.71 1003.40 1003.21 1003.13 1003.17 1003.29 1003.48
1017.43 1017.80 1018.06 1018.21 1018.24 1018.15 1017.98 1017.73 1017.44 1017.15 1016.87 1016.62 1016.40 1016.22 1016.05 1015.87 1015.66 1015.39 1015.04 1014.61 1014.09 1013.50 1012.85 1012.16 1011.45 1010.75 1010.05 1009.38 1008.71 1008.06 1007.41 1006.75 1006.10 1005.46 1004.85 1004.28 1003.79 1003.39 1003.10 1002.93 1002.87 1002.91 1003.03 1003.21
1017.78 1017.98 1018.10 1018.12 1018.06 1017.91 1017.71 1017.46 1017.19 1016.92 1016.68 1016.46 1016.28 1016.12 1015.96 1015.78 1015.56 1015.27 1014.90 1014.44 1013.89 1013.26 1012.57 1011.85 1011.11 1010.38 1009.66 1008.96 1008.28 1007.62 1006.97 1006.33 1005.71 1005.09 1004.52 1003.99 1003.53 1003.16 1002.90 1002.74 1002.69 1002.72 1002.83 1002.97
1017.83 1017.88 1017.87 1017.80 1017.68 1017.50 1017.30 1017.08 1016.86 1016.65 1016.46 1016.30 1016.15 1016.01 1015.86 1015.68 1015.44 1015.13 1014.73 1014.24 1013.66 1013.00 1012.29 1011.54 1010.78 1010.02 1009.28 1008.57 1007.88 1007.22 1006.58 1005.96 1005.35 1004.78 1004.24 1003.75 1003.33 1002.99 1002.74 1002.59 1002.52 1002.53 1002.59 1002.70
1017.57 1017.51 1017.41 1017.28 1017.13 1016.96 1016.80 1016.65 1016.50 1016.37 1016.25 1016.14 1016.03 1015.91 1015.77 1015.58 1015.32 1014.98 1014.55 1014.04 1013.43 1012.75 1012.02 1011.25 1010.47 1009.70 1008.94 1008.22 1007.52 1006.86 1006.23 1005.62 1005.05 1004.50 1004.00 1003.55 1003.15 1002.83 1002.58 1002.41 1002.31 1002.27 1002.29 1002.34
1017.05 1016.92 1016.77 1016.62 1016.48 1016.37 1016.27 1016.20 1016.15 1016.10 1016.05 1016.00 1015.93 1015.83 1015.69 1015.48 1015.20 1014.84 1014.38 1013.84 1013.22 1012.53 1011.78 1011.00 1010.21 1009.42 1008.65 1007.91 1007.21 1006.54 1005.91 1005.32 1004.76 1004.25 1003.77 1003.34 1002.96 1002.64 1002.37 1002.18 1002.03 1001.95 1001.91 1001.90
1016.35 1016.19 1016.04 1015.92 1015.83 1015.79 1015.78 1015.81 1015.85 1015.89 1015.91 1015.91 1015.87 1015.78 1015.62 1015.39 1015.09 1014.70 1014.23 1013.67 1013.03 1012.33 1011.57 1010.79 1009.98 1009.18 1008.39 1007.63 1006.91 1006.23 1005.60 1005.02 1004.47 1003.97 1003.51 1003.10 1002.73 1002.40 1002.13 1001.90 1001.72 1001.59 1001.50 1001.44
1015.59 1015.44 1015.33 1015.26 1015.25 1015.30 1015.39 1015.51 1015.64 1015.75 1015.83 1015.86 1015.83 1015.74 1015.57 1015.32 1014.99 1014.57 1014.08 1013.50 1012.85 1012.14 1011.38 1010.58 1009.76 1008.93 1008.13 1007.34 1006.60 1005.91 1005.26 1004.67 1004.13 1003.64 1003.20 1002.80 1002.45 1002.13 1001.85 1001.61 1001.41 1001.25 1001.13 1001.05
Thickness
5772 5757 5748 5753 5756 5758 5756 5749 5744 5753 5763 5750 5739 5736 5741 5748 5751 5750 5749 5750 5749 5748 5749 5750 5750 5751 5750 5746 5743 5740 5736 5734 5732 5727 5721 5717 5717 5719 5719 5719 5718 5719 5719 5720
5753 5749 5764 5770 5765 5758 5752 5744 5744 5751 5758 5745 5732 5730 5735 5739 5739 5740 5740 5739 5739 5738 5739 5740 5739 5738 5736 5734 5731 5729 5725 5724 5722 5718 5715 5714 5715 5713 5712 5713 5713 5713 5714 5713
5750 5760 5775 5771 5765 5756 5753 5747 5748 5747 5748 5741 5732 5722 5724 5730 5733 5734 5734 5733 5732 5730 5728 5728 5726 5724 5724 5723 5721 5719 5716 5714 5712 5711 5711 5709 5707 5706 5706 5705 5705 5706 5707 5706
5755 5768 5771 5767 5763 5761 5749 5763 5759 5750 5734 5720 5726 5705 5714 5717 5719 5722 5722 5722 5721 5719 5718 5716 5715 5713 5713 5712 5711 5710 5709 5706 5704 5703 5702 5700 5696 5694 5695 5696 5697 5698 5698 5698
5754 5766 5764 5760 5765 5767 5759 5760 5752 5742 5729 5715 5712 5702 5702 5709 5708 5710 5712 5712 5711 5710 5708 5706 5705 5703 5702 5703 5702 5701 5699 5698 5697 5696 5694 5690 5688 5687 5687 5688 5688 5689 5689 5689
5759 5771 5770 5767 5772 5771 5764 5750 5737 5723 5713 5700 5702 5698 5696 5699 5703 5704 5705 5705 5703 5701 5700 5697 5696 5694 5693 5693 5692 5691 5689 5687 5686 5685 5684 5681 5678 5677 5677 5676 5676 5678 5678 5680
5746 5758 5769 5773 5762 5760 5752 5728 5703 5699 5688 5690 5700 5694 5693 5703 5706 5704 5701 5699 5698 5695 5691 5689 5687 5686 5684 5683 5681 5680 5678 5676 5675 5673 5671 5670 5668 5666 5664 5664 5664 5665 5666 5667
5728 5728 5755 5763 5758 5749 5743 5728 5700 5688 5682 5686 5693 5688 5694 5704 5703 5702 5698 5695 5692 5688 5684 5682 5680 5677 5675 5674 5672 5669 5666 5664 5663 5660 5658 5656 5654 5652 5651 5651 5651 5651 5651 5653
5727 5729 5756 5761 5761 5754 5738 5719 5717 5693 5688 5679 5683 5689 5696 5699 5695 5692 5689 5686 5682 5680 5678 5674 5672 5669 5666 5663 5661 5658 5654 5652 5650 5648 5645 5642 5640 5638 5637 5637 5636 5636 5636 5638
5741 5729 5742 5751 5755 5747 5737 5720 5702 5688 5676 5671 5680 5679 5676 5683 5682 5682 5680 5677 5675 5674 5671 5667 5664 5660 5657 5653 5650 5646 5643 5640 5637 5635 5631 5630 5627 5624 5622 5620 5619 5620 5620 5621
5743 5723 5725 5732 5724 5720 5723 5713 5694 5679 5677 5667 5662 5667 5682 5677 5677 5674 5673 5671 5667 5664 5661 5658 5654 5650 5646 5641 5637 5633 5630 5626 5624 5621 5618 5615 5612 5610 5607 5604 5604 5603 5603 5604
5733 5715 5706 5716 5727 5729 5719 5707 5695 5682 5673 5664 5656 5659 5681 5675 5673 5669 5665 5663 5659 5655 5651 5647 5642 5637 5632 5628 5624 5619 5616 5612 5610 5607 5603 5600 5597 5594 5591 5589 5588 5587 5587 5588
5731 5711 5694 5696 5703 5711 5707 5702 5691 5678 5665 5657 5651 5659 5674 5669 5666 5662 5657 5653 5649 5644 5640 5634 5629 5623 5619 5615 5611 5607 5603 5599 5595 5591 5588 5584 5581 5579 5577 5575 5574 5573 5572 5572
5732 5704 5694 5688 5691 5697 5695 5694 5690 5677 5659 5656 5657 5659 5662 5659 5655 5653 5649 5645 5639 5634 5628 5622 5617 5612 5608 5603 5599 5594 5590 5585 5580 5576 5571 5568 5566 5565 5563 5562 5561 5559 5558 5557
5727 5702 5700 5698 5702 5699 5692 5688 5685 5677 5671 5658 5658 5655 5655 5653 5649 5645 5641 5636 5630 5624 5618 5612 5607 5601 5596 5592 5586 5581 5576 5571 5566 5561 5557 5555 5553 5551 5549 5548 5547 5546 5546 5546
5716 5702 5698 5693 5696 5692 5684 5683 5681 5676 5671 5664 5657 5652 5656 5651 5643 5636 5631 5625 5619 5613 5609 5604 5598 5592 5586 5580 5575 5570 5564 5560 5554 5549 5546 5543 5540 5538 5537 5536 5535 5534 5534 5534
5706 5699 5687 5679 5687 5684 5670 5676 5676 5672 5668 5660 5648 5649 5650 5642 5635 5628 5624 5617 5610 5605 5600 5595 5589 5583 5576 5570 5564 5558 5554 5548 5542 5538 5534 5531 5528 5526 5526 5525 5524 5523 5523 5524
5706 5690 5676 5673 5676 5666 5673 5685 5680 5671 5666 5660 5654 5648 5642 5636 5631 5624 5617 5608 5603 5598 5592 5586 5580 5574 5568 5562 5555 5549 5543 5537 5531 5526 5523 5520 5517 5515 5514 5513 5512 5512 5513 5514
5709 5694 5676 5665 5664 5667 5676 5681 5674 5663 5656 5658 5650 5643 5638 5633 5624 5619 5615 5607 5597 5590 5583 5577 5571 5566 5559 5553 5547 5540 5534 5527 5521 5517 5513 5509 5506 5505 5504 5503 5503 5503 5503 5504
5701 5692 5676 5665 5665 5659 5670 5681 5679 5664 5649 5655 5647 5638 5630 5621 5607 5610 5610 5599 5591 5583 5576 5570 5565 5558 5551 5546 5539 5531 5525 5518 5513 5508 5504 5500 5497 5495 5495 5495 5494 5494 5494 5496
5691 5679 5669 5663 5660 5662 5677 5679 5672 5648 5644 5653 5644 5635 5625 5612 5605 5604 5598 5590 5583 5576 5570 5564 5557 5550 5544 5539 5531 5523 5517 5511 5506 5501 5496 5492 5489 5487 5487 5486 5486 5486 5486 5487
5685 5675 5666 5656 5656 5660 5682 5674 5660 5654 5655 5649 5641 5633 5623 5613 5606 5599 5592 5585 5578 5571 5565 5558 5551 5546 5539 5532 5524 5517 5512 5507 5501 5495 5491 5487 5485 5482 5483 5480 5479 5479 5479 5481
5685 5681 5673 5668 5668 5677 5677 5674 5671 5661 5652 5646 5637 5630 5619 5610 5601 5594 5587 5579 5573 5566 5560 5553 5546 5541 5535 5528 5519 5513 5509 5503 5497 5492 5487 5484 5481 5479 5477 5475 5475 5474 5474 5476
5691 5682 5676 5673 5676 5678 5677 5674 5668 5661 5652 5644 5635 5625 5616 5605 5597 5588 5581 5574 5568 5562 5556 5550 5543 5537 5532 5525 5517 5510 5505 5499 5493 5488 5485 5481 5478 5476 5474 5472 5472 5472 5472 5473
5693 5685 5676 5673 5677 5677 5675 5670 5665 5658 5650 5641 5631 5622 5612 5602 5593 5585 5577 5570 5564 5559 5552 5545 5538 5533 5528 5523 5516 5510 5504 5497 5491 5486 5482 5479 5475 5473 5472 5471 5470 5470 5470 5471
5689 5684 5677 5675 5679 5671 5669 5668 5663 5654 5646 5637 5627 5618 5609 5599 5589 5581 5573 5567 5561 5555 5549 5543 5537 5532 5527 5521 5516 5510 5504 5496 5490 5486 5482 5477 5474 5472 5471 5470 5469 5469 5469 5470